Location: Newark
(59.4564°N, 26.6917°E)
Time: 00:02:35
(UTC+00:00)

SR - Pass Details

Date: 22 November 2019
Orbit: 573 x 882 km, 66.7° (Epoch: 06 December)

Event Time Altitude Azimuth Distance (km) Brightness Sun altitude
Rises 14:46:48 0° 252° (WSW) 3,328 ? -8.5°
Reaches altitude 10° 14:49:14 10° 257° (WSW) 2,437 ? -8.8°
Maximum altitude 14:54:49 56° 335° (NNW) 1,026 ? -9.5°
Enters shadow 15:00:18 12° 53° (NE) 2,415 ? -10.1°
Drops below altitude 10° 15:00:41 10° 54° (NE) 2,549 - -10.1°
Sets 15:03:17 0° 59° (ENE) 3,494 - -10.4°
